SCP
0 0 0 0 0 0 0 0 0 0 0 0 0 0 0 0 0 0 0 0 0 0 0 0 0 0 0 0 0 0 0 0 0 0 0 0 0 0 0 0 0 0 0 0
0 0 0 0 0 0 0 0 0 0 0 0 0 0 0 0 0 0 0 0 0 0 0 0 0 0 0 0 0 0 0 0 0 0 0 0 0 0 0 0 0 0 0 0
0 0 0 0 0 0 0 0 0 0 0 0 0 0 0 0 0 0 0 0 0 0 0 0 0 0 0 0 0 0 0 0 0 0 0 0 0 0 0 0 0 0 0 0
0 0 0 0 0 0 0 0 0 0 0 0 0 0 0 0 0 0 0 0 0 0 0 0 0 0 0 0 0 0 0 0 0 0 0 0 0 0 0 0 0 0 0 0
0 0 0 0 0 0 0 0 0 0 0 0 0 0 0 0 0 0 0 0 0 0 0 0 0 0 0 0 0 0 0 0 0 0 0 0 0 0 0 0 0 0 0 0
0 0 0 0 0 0 0 0 0 0 0 0 0 0 0 0 0 0 0 0 0 0 0 0 0 0 0 0 0 0 0 0 0 0 0 0 0 0 0 0 0 0 0 0
0 0 0 0 0 0 0 0 0 0 0 0 0 0 0 0 0 0 0 0 0 0 0 0 0 0 0 0 0 0 0 0 0 0 0 0 0 0 0 0 0 0 0 0
0 0 0 0 0 0 0 0 0 0 0 0 0 0 0 0 0 0 0 0 0 0 0 0 0 0 0 0 0 0 0 0 0 0 0 0 0 0 0 0 0 0 0 0
0 0 0 0 0 0 0 0 0 0 0 0 0 0 0 0 0 0 0 0 0 0 0 0 0 0 0 0 0 0 0 0 0 0 0 0 0 0 0 0 0 0 0 0
0 0 0 0 0 0 0 0 0 0 0 0 0 0 0 0 0 0 0 0 0 0 0 0 0 0 0 0 0 0 0 0 0 0 0 0 0 0 0 0 0 0 0 0
0 0 0 0 0 0 0 0 0 0 0 0 0 0 0 0 0 0 0 0 0 0 0 0 0 0 0 0 0 0 0 0 0 0 0 0 0 0 0 0 0 0 0 0
0 0 0 0 0 0 0 0 0 0 0 0 0 0 0 0 0 0 0 0 0 0 0 0 0 0 0 0 0 0 0 0 0 0 0 0 0 0 0 0 0 0 0 0
0 0 0 0 0 0 0 0 0 0 0 0 0 0 0 0 0 0 0 0 0 0 0 0 0 0 0 0 0 0 0 0 0 0 0 0 0 0 0 0 0 0 0 0
0 0 0 0 0 0 0 0 0 0 0 0 0 0 0 0 0 0 0 0 0 0 0 0 0 0 0 0 0 0 0 0 0 0 0 0 0 0 0 0 0 0 0 0
0 0 0 0 0 0 0 0 0 0 0 0 0 0 0 0 0 0 0 0 0 0 0 0 0 0 0 0 0 0 0 0 0 0 0 0 0 0 0 0 0 0 0 0
0 0 0 0 0 0 0 0 0 0 0 0 0 0 0 0 0 0 0 0 0 0 0 0 0 0 0 0 0 0 0 0 0 0 0 0 0 0 0 0 0 0 0 0
0 0 0 0 0 0 0 0 0 0 0 0 0 0 0 0 0 0 0 0 0 0 0 0 0 0 0 0 0 0 0 0 -0 -0 0 0 0 0 0 0 0 0 0 0
0 0 0 0 0 0 0 0 0 0 0 0 0 0 0 0 0 0 0 0 0 0 0 0 0 0 0 0 0 0 0 -0 -0 -0 0 0 0 0 0 0 0 0 0 0
0 0 0 0 0 0 0 0 0 0 0 0 0 0 0 0 0 0 0 0 0 0 0 0 0 0 0 0 0 0 0 -0 0 0 0 0 0 0 0 0 0 0 0 0
0 0 0 0 0 0 0 0 0 0 0 0 0 0 0 0 0 0 0 0 0 0 0 0 0 0 0 0 0 0 -0 -0 -0 -0 -0 -0 -0 -0 0 0 0 0 0 0
0 0 0 0 0 0 0 0 0 0 0 0 0 0 0 0 0 0 0 0 0 0 0 0 0 0 0 0 0 0 0 0 0 0 0 -0 -0 0 0 0 0 0 0 0
0 0 0 0 0 0 0 0 0 0 0 0 0 0 0 0 0 0 0 0 0 0 0 0 0 0 0 0 0 0 0 0 0 0 0 -0 -0 0 0 0 0 0 0 0
0 0 0 0 0 0 0 0 0 0 0 0 0 0 0 0 0 0 0 0 0 0 0 0 0 0 0 0 0 0 0 0 0 -0 -0 -0 -0 0 0 0 0 0 0 0
0 0 0 0 0 0 0 0 0 0 0 0 0 0 0 0 0 0 0 0 0 0 0 0 0 0 0 0 0 0 0 0 0 -0 -0 -0 -0 0 0 0 0 0 0 0
0 0 0 0 0 0 0 0 0 0 0 0 0 0 0 0 0 0 0 0 0 0 0 0 0 0 0 0 0 0 0 0 0 -0 -0 -0 -0 -0 0 0 0 0 0 0
0 0 0 0 0 0 0 0 0 0 0 0 0 0 0 0 0 0 0 0 0 0 0 0 0 0 0 0 0 0 0 0 0 0 0 -0 -0 -0 0 0 0 0 0 0
Wind_Speed
3 5 3 5 6 4 4 4 3 2 2 4 4 4 3 2 2 3 3 3 4 4 4 4 5 5 5 5 6 6 6 6 5 3 4 4 4 5 4 4 5 5 4 5
5 0 3 3 3 3 3 3 1 0 2 2 1 3 3 3 4 5 5 5 4 4 4 5 5 5 5 6 6 6 6 7 6 4 3 3 4 4 4 4 5 5 5 5
4 2 2 4 4 3 2 4 4 3 2 3 2 4 3 2 1 2 3 4 4 4 5 5 6 6 6 6 6 6 7 7 6 5 4 4 4 4 4 4 4 4 5 5
2 0 3 4 2 3 2 2 3 4 3 1 1 4 6 3 3 3 4 4 4 5 5 5 6 6 7 7 6 6 7 7 6 5 4 5 4 5 5 5 5 6 5 5
1 1 3 2 1 3 2 3 4 2 3 1 1 1 8 1 4 6 6 5 5 5 5 5 6 6 7 6 6 6 6 6 6 6 5 5 5 5 5 5 6 6 5 4
2 1 2 3 3 3 5 6 6 5 5 2 2 3 8 4 6 5 4 5 5 5 5 5 5 5 6 6 6 6 6 7 7 7 6 6 7 7 8 7 6 5 4 4
3 3 3 2 4 4 5 6 5 5 4 5 2 3 9 5 6 5 5 6 5 4 4 5 6 6 6 7 7 6 7 7 7 7 7 6 7 7 7 7 6 6 4 4
4 1 2 1 3 3 3 6 6 3 4 6 3 5 8 4 2 3 4 4 4 4 4 5 5 5 6 7 6 6 7 7 7 7 7 6 6 5 4 5 5 5 4 4
6 3 1 1 2 6 4 2 4 6 1 3 6 7 8 1 2 2 3 3 5 5 5 5 5 5 5 6 6 6 6 7 7 7 7 7 7 6 6 6 5 4 5 5
7 4 0 0 4 4 4 8 5 4 1 4 7 5 5 5 7 6 5 6 6 5 5 5 5 5 5 4 5 5 5 5 6 6 6 6 6 6 6 5 6 6 6 6
4 6 1 2 2 4 4 4 5 4 4 4 4 9 7 6 7 7 8 7 6 6 5 5 5 4 4 5 4 5 5 5 6 6 6 6 7 6 6 6 6 6 6 6
3 6 2 2 2 2 3 6 7 4 3 4 3 10 5 6 6 6 7 6 5 5 4 4 4 4 4 5 5 4 5 5 5 6 6 6 6 6 6 7 7 7 6 6
6 7 4 5 5 1 2 4 4 6 5 4 3 10 4 3 4 5 6 6 5 5 4 4 3 4 4 4 4 4 4 5 5 5 6 6 7 7 7 7 7 7 7 7
6 5 6 7 7 5 4 4 5 6 4 4 8 10 8 6 7 7 7 6 5 5 5 4 4 4 4 4 4 4 4 4 5 5 5 6 7 7 6 6 7 7 7 7
5 4 3 4 2 3 4 5 7 7 7 8 8 7 11 8 8 8 6 5 5 5 5 5 4 4 4 4 3 3 3 4 4 4 5 6 6 6 6 7 7 7 7 7
4 4 2 1 1 2 3 5 7 7 6 7 6 10 10 6 3 4 6 6 7 7 7 6 5 4 4 4 3 3 3 4 3 4 5 5 6 6 7 7 7 7 7 8
3 4 3 2 3 2 6 7 8 6 7 8 9 10 4 3 6 7 8 8 9 8 7 6 5 5 5 4 3 2 2 3 3 4 5 5 5 6 6 7 7 7 7 7
6 5 4 1 2 4 8 3 5 5 7 8 8 7 5 7 5 5 6 8 9 8 7 6 5 5 4 3 2 2 1 2 3 4 4 5 5 5 6 6 6 6 5 6
4 7 5 3 0 7 8 2 5 4 6 5 7 7 3 0 2 5 6 8 9 8 7 6 6 4 3 3 3 2 1 2 2 3 4 4 4 4 5 6 5 5 4 5
5 5 6 4 1 4 6 2 1 2 5 4 5 4 3 4 1 6 4 6 7 6 5 5 4 4 4 4 3 2 2 2 3 3 3 3 3 3 4 4 4 3 3 4
2 4 4 4 3 8 8 3 2 1 6 4 3 4 7 7 8 5 2 4 5 6 6 5 5 5 5 4 4 3 3 4 4 3 2 2 3 3 2 3 3 3 3 4
7 5 4 5 3 7 3 3 5 7 4 3 3 4 7 8 5 3 3 4 4 5 5 6 5 5 4 5 5 4 5 5 3 2 2 2 2 2 2 2 3 3 4 4
6 7 7 8 8 5 2 4 4 3 4 4 3 4 5 5 5 4 4 4 5 6 6 5 6 5 4 5 6 6 6 4 3 2 2 2 2 1 1 2 2 3 3 3
2 1 3 3 5 4 3 3 5 4 5 5 4 3 3 4 5 4 4 4 5 5 5 5 5 6 6 6 7 7 5 3 3 3 3 2 1 1 1 1 1 1 1 2
1 2 2 3 5 6 4 6 8 7 4 4 3 1 2 3 3 4 4 5 5 5 4 5 6 7 8 6 7 7 5 5 4 4 3 3 2 2 1 1 1 1 2 2
1 3 4 4 2 2 5 7 9 7 6 5 4 4 2 1 3 3 4 4 4 5 4 5 6 8 8 6 7 7 6 7 6 4 4 3 3 2 2 2 2 3 4 4
Wind_Direction
62 85 155 200 195 192 170 175 211 236 161 154 205 234 231 196 177 196 216 235 256 267 282 298 308 312 313 316 319 316 317 316 324 322 322 317 312 308 307 301 301 301 293 285
57 124 215 154 127 112 127 145 183 67 89 133 195 264 254 214 210 212 216 230 248 272 293 297 304 312 311 309 313 316 315 313 315 305 294 280 283 289 286 293 300 297 296 288
152 215 139 118 112 110 136 173 191 175 75 56 64 312 268 255 227 223 223 231 248 259 273 289 302 305 310 310 311 315 312 311 313 316 311 312 308 305 308 309 306 302 300 291
144 312 111 109 132 141 226 227 161 139 122 286 117 290 284 252 265 253 242 244 260 275 280 286 296 305 306 304 310 312 314 315 318 324 325 321 319 310 299 300 296 302 298 294
132 100 115 126 154 150 162 60 91 104 124 25 10 225 287 299 259 257 246 244 256 268 275 283 291 296 300 307 314 317 322 322 323 328 326 320 314 302 302 305 307 310 309 303
78 43 88 126 78 83 110 70 55 50 67 328 243 186 280 239 227 246 237 240 253 267 280 288 296 304 308 314 322 328 331 325 329 332 331 327 321 320 324 324 323 322 315 309
43 19 22 101 92 47 74 79 26 357 5 263 262 212 254 254 230 222 225 236 250 262 276 290 301 308 312 317 323 330 333 326 330 334 333 330 325 322 322 322 324 326 325 318
137 271 332 54 136 133 106 126 149 213 247 287 308 246 257 263 249 225 222 230 249 266 272 279 286 295 302 310 323 330 330 326 331 335 331 328 330 325 321 323 325 324 319 314
156 199 344 67 111 123 118 108 152 130 184 290 288 285 302 223 245 234 237 244 255 263 270 275 288 298 302 311 317 321 326 327 330 334 332 331 337 335 331 329 329 325 324 323
139 141 280 88 75 44 111 139 98 105 130 298 301 287 264 256 246 245 242 244 252 262 272 279 287 295 303 309 312 323 329 325 325 333 335 338 336 336 334 336 338 335 334 336
109 123 69 48 156 171 113 95 103 108 146 162 293 280 231 229 228 227 235 237 242 248 259 269 282 295 305 316 324 330 336 336 337 337 333 337 338 337 339 342 338 334 334 338
105 110 132 268 284 226 177 164 147 148 208 170 202 270 267 243 241 228 236 240 240 241 249 262 279 300 313 321 326 331 333 335 333 331 333 337 338 340 345 343 340 340 339 338
130 108 81 349 340 324 182 151 141 124 117 156 201 266 290 286 260 241 237 242 243 246 253 268 285 295 301 310 319 324 329 331 331 335 340 343 344 345 344 341 341 343 344 345
109 112 156 191 219 197 200 176 151 133 154 209 230 257 289 272 257 251 240 238 236 242 247 256 271 280 288 299 308 318 324 330 334 340 346 347 343 340 340 342 345 348 350 352
100 135 192 222 225 183 212 199 176 185 193 202 239 244 262 256 239 238 232 227 229 241 244 245 250 264 279 293 303 314 320 330 337 343 346 342 337 340 348 353 354 354 357 0
81 123 108 350 359 214 249 237 203 215 215 229 259 272 258 259 236 234 227 215 225 235 238 241 242 249 259 269 281 300 312 324 336 342 338 337 343 349 353 353 355 359 2 1
94 117 107 296 323 17 278 241 197 212 213 197 224 245 261 252 236 230 223 215 222 229 229 230 230 233 241 248 250 264 287 319 338 338 337 342 348 353 352 355 4 6 2 3
122 100 108 96 41 250 246 253 190 212 245 217 232 250 240 237 248 247 218 210 223 225 221 222 222 226 229 230 231 240 291 324 332 334 335 340 349 350 352 0 2 358 357 2
121 125 108 104 123 290 299 265 178 189 279 225 225 253 256 230 5 301 230 207 216 216 211 212 209 206 206 212 211 201 274 313 324 323 325 332 341 347 354 358 352 351 358 5
66 89 106 117 143 255 258 286 189 112 298 270 209 236 179 122 59 272 253 209 216 212 203 201 193 187 199 210 184 187 241 279 287 292 304 319 335 346 350 347 347 347 356 0
83 64 111 146 217 265 254 264 123 113 258 273 209 206 172 191 211 240 256 212 203 201 200 189 183 195 209 192 173 202 232 250 257 274 300 323 336 337 345 350 355 356 6 13
164 150 167 146 184 261 268 152 177 223 256 268 236 206 200 226 248 257 245 226 204 198 195 185 189 212 212 185 181 210 235 242 246 257 289 312 331 342 6 10 8 11 16 22
186 184 181 184 207 238 273 225 267 264 263 265 250 241 216 234 245 239 235 228 217 207 203 192 195 213 218 200 192 213 234 223 214 226 255 284 313 339 4 17 10 10 13 20
249 153 161 244 267 268 278 292 304 275 256 273 269 260 207 226 246 242 236 228 223 217 208 197 193 212 227 216 209 221 225 200 198 219 237 249 263 294 331 360 359 5 356 1
244 163 188 255 298 326 341 354 334 321 308 316 319 296 236 232 253 238 235 232 227 223 214 197 203 217 230 221 220 224 211 190 201 219 228 233 229 234 256 265 251 250 243 225
196 172 178 218 274 283 296 331 340 342 344 340 348 356 354 267 263 256 245 240 229 226 216 215 221 228 235 226 229 226 203 190 196 214 224 221 219 220 225 250 286 261 246 264